Theta_e
290 291 291 292 290 288 289 288 287 285 286 285 282 283 287 288 283 282 287 289 286 288 291 292 293 295 295 295 296 297 297 297 297 297 294 292 290 290 289 288 288 287 286 286 285 285 284 284 283 282 282 281 281 280 279 277 276 275 275 274 273 273 273 273 273 273 273 272 272 272 271 271 270 270 270 269 269 268 268 268 268 268 268 268 268 269 269
288 289 290 291 290 286 286 287 288 288 287 286 286 286 287 287 286 288 289 289 288 291 292 293 295 297 296 296 297 297 297 296 296 296 296 296 294 291 290 289 289 288 287 287 285 285 284 283 283 282 281 280 279 278 277 276 275 275 274 273 273 272 272 272 272 272 272 271 271 271 270 270 269 269 268 268 267 267 267 267 267 268 267 268 268 269 269
285 288 290 290 289 287 285 286 288 288 288 287 287 286 287 287 287 288 288 287 286 291 294 294 296 296 296 296 295 295 296 296 296 296 296 296 296 296 293 291 290 289 288 287 285 284 284 283 283 281 281 280 279 278 276 275 274 274 273 272 272 272 272 272 272 271 271 270 270 269 269 268 268 267 266 266 266 266 266 266 266 267 267 268 268 269 269
282 286 286 287 287 285 283 283 285 286 287 285 287 285 287 285 283 286 286 283 284 290 294 294 294 294 294 293 294 295 296 296 296 295 296 296 296 297 297 294 291 289 288 286 285 284 284 283 283 281 280 279 278 276 275 274 273 273 272 272 271 271 272 271 271 270 270 269 268 268 267 266 266 265 265 264 264 265 265 265 266 267 267 268 268 268 268
280 285 286 285 284 282 280 281 285 287 288 289 289 290 291 289 289 285 283 284 290 292 294 292 293 293 294 294 294 295 295 296 296 296 296 296 297 297 297 296 292 290 288 287 286 285 284 283 282 281 280 278 277 276 274 274 272 271 271 271 271 270 270 270 269 269 269 268 267 266 266 265 264 264 263 263 263 263 264 265 266 266 267 267 267 267 267
280 284 284 285 281 274 276 288 291 290 288 288 287 287 289 291 291 288 290 290 293 294 293 293 293 294 294 295 297 298 297 297 297 297 297 297 298 298 298 297 295 291 289 287 286 285 285 284 283 281 279 278 277 275 274 272 271 271 270 270 270 269 269 268 268 268 267 266 265 265 264 263 263 263 263 263 263 264 264 265 265 265 266 266 266 266 266
280 283 282 278 273 276 286 292 293 293 292 291 290 290 291 292 292 292 291 292 292 293 294 295 295 296 297 297 297 297 298 298 297 296 296 297 297 298 297 296 294 291 289 287 286 285 284 283 281 279 278 277 275 273 272 271 271 270 269 269 268 268 267 268 267 266 266 265 264 264 263 263 262 262 262 263 263 264 264 265 265 264 265 265 265 265 265
281 279 279 273 274 284 288 290 292 294 293 292 290 288 291 292 292 292 291 292 294 294 295 296 296 295 295 296 297 297 298 298 297 297 297 297 298 297 297 296 294 291 289 287 286 285 284 281 279 278 277 275 273 272 271 270 269 268 268 267 267 267 267 266 265 265 264 264 263 263 263 262 262 262 262 262 262 263 264 264 265 265 265 265 264 264 265
277 278 279 278 285 283 286 287 289 290 287 288 287 283 287 292 293 293 292 293 294 294 295 296 296 296 295 293 294 297 297 298 298 298 298 298 298 298 298 297 295 293 290 287 286 284 282 280 277 277 275 273 272 269 268 268 267 267 267 266 266 266 265 265 264 265 264 263 262 261 262 261 261 261 262 262 263 264 263 263 264 263 263 264 264 264 264
285 278 277 278 277 275 281 289 293 295 295 294 292 288 285 293 294 295 293 292 293 293 294 294 295 296 290 289 291 296 298 298 297 298 298 298 298 297 296 293 292 290 288 286 284 282 279 277 276 274 272 271 269 268 267 267 266 266 265 265 265 264 264 264 264 263 263 262 261 261 261 261 261 261 262 262 263 263 262 262 262 263 263 263 264 264 264
283 280 277 276 275 278 287 288 292 293 295 294 291 287 282 291 293 294 293 292 293 293 293 293 293 290 287 288 292 297 297 296 297 297 296 295 295 294 294 291 288 286 286 284 281 279 277 274 273 272 271 270 268 267 267 266 266 266 265 265 264 264 264 264 263 262 262 261 261 261 260 261 261 260 261 261 262 262 262 262 262 263 263 263 263 264 264
281 280 278 276 281 280 287 290 292 293 293 293 289 278 278 291 293 294 293 292 292 293 293 293 291 289 287 289 293 298 297 296 295 295 295 293 291 289 287 288 287 284 281 278 277 276 275 274 272 271 270 269 268 267 266 266 265 265 266 265 265 264 263 262 262 261 261 260 260 259 260 260 260 260 261 261 262 261 261 262 262 263 263 263 262 263 265
280 281 279 282 282 288 291 291 292 289 293 291 281 276 284 293 294 295 294 293 294 294 293 292 289 291 293 294 297 288 288 290 289 287 289 289 288 286 284 284 283 279 278 278 276 276 275 272 270 270 269 268 267 267 266 265 265 266 266 265 263 263 262 261 260 260 260 259 259 259 260 259 260 260 261 261 261 260 260 261 261 261 261 262 263 264 266
279 280 278 278 283 288 293 293 291 291 289 280 279 289 296 295 294 295 294 294 294 294 293 292 292 294 295 295 296 289 286 290 290 285 284 283 282 282 282 281 279 277 276 276 275 273 271 269 268 268 268 267 267 266 265 265 266 266 264 263 262 261 261 260 259 259 259 259 259 258 259 259 259 260 261 260 260 260 261 261 260 260 261 262 263 264 266
282 281 278 277 274 286 294 290 288 291 286 286 294 295 295 295 295 295 295 294 294 294 292 293 293 294 294 294 294 294 293 287 285 283 281 281 280 278 277 276 277 276 275 274 273 271 269 268 268 268 268 267 266 265 265 266 265 263 262 261 260 260 260 259 258 258 258 258 258 258 258 259 258 259 260 259 259 259 259 260 260 260 262 263 264 264 265
279 278 276 276 285 290 294 291 286 289 292 296 296 296 295 297 296 295 295 295 295 294 293 292 292 293 293 293 293 293 292 288 286 283 282 282 280 278 277 277 276 275 274 273 270 268 267 267 267 268 268 267 266 265 266 265 262 261 260 260 259 259 258 257 257 257 257 257 258 258 258 258 258 258 258 258 259 260 260 260 261 261 263 263 264 264 265
285 281 285 290 292 292 295 294 294 296 297 297 297 297 296 296 296 296 295 296 295 294 294 294 293 292 292 293 293 291 291 290 286 283 281 281 279 278 276 275 275 274 273 270 268 266 267 266 266 267 268 267 266 266 265 262 261 260 259 258 258 257 257 257 256 257 257 257 257 258 258 258 258 259 258 258 259 260 260 261 262 261 262 263 263 265 265
294 294 294 295 293 293 293 296 296 296 297 297 296 295 295 296 297 297 296 295 295 293 291 291 291 292 293 293 292 291 291 290 288 284 281 279 278 277 276 274 273 273 271 268 266 265 265 266 266 267 268 268 266 266 262 261 261 259 258 257 257 256 256 256 256 256 256 257 257 258 258 259 258 259 259 259 260 260 261 261 261 261 262 263 264 264 264
289 284 294 293 293 295 294 295 297 297 297 297 297 296 295 296 297 297 296 295 295 294 290 290 291 293 293 292 292 292 291 290 287 284 281 279 277 276 275 274 272 270 268 266 265 264 264 265 265 266 267 267 267 263 261 261 260 258 257 256 256 255 255 256 256 256 257 258 258 257 257 258 259 259 259 260 260 260 261 261 261 262 263 264 264 264 264
287 287 293 295 296 296 297 296 295 294 295 296 297 297 297 297 297 296 297 295 292 291 290 291 291 292 293 292 292 292 290 289 288 284 281 279 277 276 275 273 271 269 267 266 264 264 263 264 265 265 265 266 263 261 261 260 257 256 256 257 256 255 256 256 257 257 258 257 258 259 258 258 259 260 260 260 260 261 261 261 261 262 263 264 264 264 264
287 290 290 292 294 294 295 296 296 296 296 295 295 296 295 295 293 294 294 294 294 294 293 293 291 290 292 292 292 291 291 290 287 284 282 280 277 275 272 271 269 268 267 266 265 264 264 264 264 264 264 262 261 261 260 257 256 256 257 256 255 255 256 257 257 258 258 258 259 259 258 257 258 260 259 260 261 261 263 263 264 264 264 265 265 265 265
283 284 287 292 286 286 293 295 296 297 297 295 294 294 294 294 293 293 293 293 294 292 293 293 293 290 290 292 292 290 291 290 289 286 282 278 275 273 272 270 269 268 268 266 265 264 264 263 263 263 262 260 260 260 258 257 257 257 256 255 255 256 256 257 258 258 258 257 257 258 258 258 258 258 259 262 262 262 263 266 267 268 268 266 266 266 265
282 288 292 293 292 291 293 295 296 297 297 295 293 293 293 294 295 295 294 292 292 292 292 291 291 291 292 292 292 291 290 290 289 287 282 277 274 272 270 268 267 267 267 266 265 264 263 263 262 261 260 259 259 258 257 257 257 256 256 256 256 256 256 257 258 258 258 258 258 258 258 258 258 258 259 260 263 265 265 266 266 267 268 268 268 269 267
289 291 291 292 290 288 291 294 295 295 296 296 295 295 295 295 295 294 294 294 293 293 293 293 292 292 292 292 291 290 290 290 289 286 282 278 275 272 270 268 267 267 266 265 264 264 263 262 261 260 259 258 257 257 256 257 257 256 257 257 256 256 257 258 258 258 259 258 258 257 258 258 258 258 258 259 261 265 266 265 266 266 266 267 268 268 269
285 290 291 291 291 291 292 293 293 294 294 294 294 294 295 295 295 295 294 294 294 293 292 292 293 293 291 291 291 290 290 290 290 287 282 277 274 271 269 268 267 266 266 265 265 264 262 261 260 259 258 257 256 256 256 256 257 257 258 258 257 257 258 257 257 257 258 257 257 257 257 256 257 257 257 257 258 259 260 263 265 265 265 266 267 267 268
287 287 287 287 287 288 289 289 289 290 292 294 294 294 295 293 294 294 294 294 294 294 293 293 292 293 293 292 291 291 290 290 288 282 278 274 272 270 268 267 267 267 266 265 264 263 261 260 259 258 257 256 256 256 256 256 257 257 258 258 257 257 257 257 258 258 258 258 257 257 257 257 257 256 255 255 255 254 255 256 258 260 263 264 265 265 266
286 286 285 284 284 285 287 285 284 288 289 291 291 292 294 295 293 294 295 294 292 292 292 293 292 292 292 291 289 289 289 288 282 279 277 275 272 270 269 269 268 267 265 265 263 261 260 259 258 258 257 256 256 256 256 256 256 257 257 257 257 256 256 258 259 258 258 258 257 256 256 256 256 255 255 254 254 254 254 253 253 254 255 256 259 263 262
286 286 286 282 281 283 284 286 287 287 288 288 288 288 289 290 290 289 289 290 290 291 291 290 290 290 290 290 290 289 288 284 280 279 277 275 274 273 271 269 267 266 264 263 262 260 259 259 258 257 256 256 256 255 255 255 256 256 256 256 257 257 257 257 258 258 257 257 257 257 257 256 256 255 254 254 254 254 253 253 252 253 254 255 254 258 262
285 286 286 286 286 287 287 288 288 288 288 289 290 290 289 288 288 288 289 290 291 291 291 291 291 290 290 291 291 290 288 285 282 280 278 277 275 272 270 268 266 265 263 262 260 259 259 258 258 257 256 256 255 255 255 255 255 256 256 257 257 257 257 258 257 257 257 256 257 257 256 254 255 254 254 253 253 253 253 252 252 253 253 253 254 255 258
281 280 281 282 284 285 284 284 284 285 286 287 287 287 288 288 287 288 289 290 290 290 291 292 291 290 290 289 289 289 287 285 283 282 280 278 274 270 268 267 265 264 262 260 259 259 258 258 257 256 255 255 254 254 254 254 255 256 256 257 258 257 257 257 256 256 255 256 256 256 254 253 253 253 253 253 252 252 252 251 252 252 252 252 253 252 253
274 275 275 277 278 281 280 279 280 281 284 285 286 286 287 287 287 287 288 289 289 289 290 290 290 290 290 289 289 289 288 287 285 284 279 274 270 268 266 264 262 261 261 260 259 259 258 258 258 257 256 254 254 254 254 255 255 256 257 257 257 258 258 258 257 255 255 254 254 253 253 252 252 252 252 252 252 251 251 251 250 251 252 251 252 252 252
269 271 272 273 274 273 273 274 275 276 277 279 279 280 283 284 285 285 286 287 288 288 288 288 288 289 289 290 289 288 287 285 278 275 272 269 268 267 265 265 264 263 262 261 259 259 259 258 258 256 254 254 254 254 255 255 256 256 256 256 257 258 258 258 256 255 253 253 253 253 252 252 251 252 252 252 251 251 250 250 250 251 251 251 251 251 252
266 267 269 270 270 270 270 271 272 273 274 275 276 278 280 282 283 284 286 286 287 287 288 288 288 288 289 289 288 287 285 280 276 274 270 268 267 266 265 266 266 266 264 261 260 261 260 259 257 254 253 253 254 254 255 255 255 256 256 258 258 258 257 258 256 254 252 252 252 252 252 252 252 251 251 251 250 250 250 249 250 250 250 250 250 250 251
265 265 266 267 268 267 268 268 270 271 272 274 275 277 278 279 280 282 284 285 286 286 287 287 288 288 288 288 287 285 278 273 271 270 269 268 267 266 266 266 267 265 262 261 262 262 262 259 255 253 253 253 254 254 254 255 256 257 258 259 258 257 256 255 254 252 252 252 252 250 251 250 251 251 251 250 250 249 250 249 250 250 250 250 250 250 252
266 266 266 266 266 267 267 267 268 268 269 269 271 273 275 277 279 280 282 283 284 285 287 287 287 288 288 287 286 279 275 276 275 274 271 269 267 266 265 266 263 260 259 260 261 261 260 256 254 254 253 253 254 254 254 255 256 256 257 257 257 256 255 253 252 252 252 251 250 250 250 250 250 250 250 249 249 249 249 249 249 249 249 249 250 250 250
264 264 264 264 264 264 265 265 266 266 267 267 269 270 272 274 276 277 279 281 283 285 286 286 287 287 287 286 282 278 276 277 278 276 272 268 266 265 265 263 259 258 258 259 260 259 256 254 254 253 253 253 253 254 255 255 255 255 255 255 254 253 253 252 252 252 251 251 251 251 251 250 250 250 249 249 248 248 248 248 248 249 249 249 249 249 249
263 262 262 262 263 263 263 263 264 265 265 266 267 268 269 271 272 274 276 278 281 283 284 285 286 285 286 285 284 282 280 279 278 273 268 266 265 265 264 261 259 259 259 258 258 256 255 254 253 253 253 253 253 254 254 254 254 254 254 254 253 253 252 251 251 250 250 250 250 250 249 249 249 249 248 248 249 248 248 249 249 248 249 248 248 248 248
261 261 261 261 261 261 261 262 263 263 263 264 265 267 268 270 271 273 275 278 280 282 284 285 285 286 286 285 283 281 279 276 271 267 265 265 265 265 263 261 261 261 259 257 256 254 254 253 253 254 254 254 253 253 253 253 253 254 253 253 252 252 251 251 250 250 249 249 249 249 249 249 249 249 248 248 247 247 248 248 248 249 248 248 248 247 248
259 260 260 261 261 260 261 261 262 262 262 263 264 265 267 268 270 272 273 275 278 281 283 284 285 285 284 282 280 278 274 269 266 265 264 264 265 264 263 263 263 264 263 257 254 254 253 253 254 254 254 254 253 253 252 252 252 254 253 253 252 252 251 251 250 250 249 249 248 248 248 249 249 249 249 249 248 248 248 248 248 248 248 248 247 247 247
259 259 259 259 259 260 260 260 261 261 262 263 263 264 266 268 269 271 273 276 278 281 282 283 284 283 281 279 277 274 269 267 265 264 264 264 264 263 262 262 261 258 256 256 255 254 254 254 254 255 254 253 253 253 252 252 252 253 253 253 253 252 252 251 250 250 249 249 249 248 248 248 249 249 249 248 248 248 248 247 247 247 247 247 247 247 247
258 258 258 258 259 259 259 260 260 261 262 263 264 265 267 269 271 272 274 277 279 281 282 283 283 282 279 275 272 269 266 265 265 264 264 263 262 261 260 260 259 258 257 255 254 254 254 254 255 254 253 253 253 252 252 252 253 253 253 253 252 252 251 251 250 250 250 250 249 250 249 249 248 248 248 248 248 248 247 247 248 247 247 247 247 247 247
257 258 258 258 258 259 260 260 261 261 263 265 268 269 272 274 275 275 276 278 279 279 277 277 275 274 269 266 265 264 264 264 264 264 263 262 261 261 257 254 256 257 256 255 254 254 255 255 255 254 253 253 252 251 252 252 253 253 253 253 252 251 251 251 250 250 250 250 250 250 249 249 249 249 248 248 248 248 248 248 248 248 248 247 247 247 247
258 257 258 258 259 259 259 260 261 262 266 270 272 271 270 271 271 273 273 274 274 272 271 269 267 265 264 264 263 262 262 262 262 263 262 259 260 261 256 254 255 256 255 254 254 255 255 255 254 254 253 253 252 251 252 253 253 254 253 252 252 252 251 251 250 250 250 249 249 249 249 249 249 249 249 249 249 248 248 248 248 248 248 248 247 247 247
258 258 258 259 259 259 259 260 262 266 267 267 268 267 267 269 270 271 271 271 270 269 268 266 265 264 263 263 262 261 261 262 262 261 258 256 255 256 256 255 254 254 255 255 255 255 255 255 255 254 252 252 251 251 253 253 253 253 252 252 252 252 251 250 250 250 250 249 249 249 249 248 249 249 249 249 249 249 249 249 249 249 248 247 247 247 248
258 259 258 258 259 259 259 262 264 265 266 266 265 264 263 264 265 267 268 268 267 266 265 264 263 263 263 263 262 262 262 263 262 261 259 255 253 252 254 255 254 254 255 255 255 255 255 255 254 252 252 251 252 252 254 254 253 253 252 252 251 251 250 250 250 250 249 249 249 249 249 249 249 249 249 249 248 249 249 248 248 247 247 248 248 247 248
258 258 259 259 258 259 261 263 264 264 264 263 262 261 261 262 263 263 264 264 263 263 263 263 263 263 262 262 262 261 260 259 259 260 260 258 255 253 255 254 255 255 255 255 255 255 254 253 252 252 251 252 252 253 254 253 253 253 252 252 251 250 251 251 250 249 249 249 250 249 250 250 249 249 249 248 248 248 247 246 247 247 247 247 247 247 247
257 257 258 258 258 259 261 262 262 262 261 260 258 258 260 260 261 261 261 261 261 261 261 261 262 262 262 262 261 259 258 256 255 255 255 255 255 255 255 255 255 254 254 254 254 254 253 252 252 251 251 251 252 253 253 253 253 252 252 252 251 252 251 250 250 249 249 249 248 247 247 247 248 247 246 246 246 247 247 246 247 247 247 246 246 246 246
256 256 257 258 258 258 259 260 260 259 259 258 258 259 259 260 260 259 259 259 259 259 260 261 261 261 262 262 262 262 260 256 253 253 255 255 255 255 255 255 255 254 254 253 253 252 252 252 251 251 251 251 252 253 252 252 252 252 251 251 251 251 251 250 250 249 249 248 247 248 248 248 247 247 247 247 247 247 246 246 247 247 247 247 247 247 246
256 256 257 258 258 257 257 258 258 258 258 259 259 259 259 259 258 258 257 257 257 256 256 256 256 256 257 257 258 258 257 258 256 253 255 255 255 255 255 254 254 253 253 253 252 252 251 251 251 251 251 251 253 252 252 252 251 251 251 251 251 251 251 250 249 249 249 248 248 248 248 247 247 247 246 246 246 246 245 245 245 246 246 246 246 246 246
256 256 257 257 257 256 255 255 256 257 258 258 258 258 258 258 256 256 257 256 256 255 255 254 254 254 255 256 257 257 257 255 255 255 255 255 255 255 254 254 254 253 252 252 252 251 251 251 251 251 251 252 252 252 252 251 252 251 252 250 250 250 249 247 247 246 247 247 247 247 247 247 247 245 245 246 246 245 245 246 246 245 244 245 246 246 246
255 255 256 256 256 257 256 255 255 256 257 257 258 258 258 257 256 256 256 256 256 255 253 253 253 254 254 255 255 256 257 257 257 256 257 256 255 254 254 253 253 253 252 252 251 251 251 252 252 251 251 251 251 251 251 251 251 251 250 250 249 249 248 247 247 247 247 247 246 246 246 246 245 245 246 246 245 245 245 245 245 245 245 246 246 246 246
255 255 256 255 255 255 256 255 255 255 255 256 256 256 256 257 256 256 256 256 256 255 254 253 252 253 254 254 254 254 255 255 256 256 255 254 254 253 253 253 253 252 252 252 252 252 252 251 251 250 250 251 251 251 250 249 250 250 249 249 248 249 248 248 248 247 246 246 246 246 246 246 245 245 245 245 245 245 245 245 245 245 245 245 245 244 244
Wind_Speed
21 22 23 24 15 10 11 11 12 16 20 19 24 27 21 9 13 19 24 23 20 19 22 28 28 22 16 20 20 16 11 8 7 7 10 11 12 12 12 13 13 13 13 14 15 14 14 14 15 16 13 14 13 12 12 12 12 11 11 11 10 10 9 8 8 8 7 6 5 5 4 4 4 4 4 4 4 4 4 5 6 7 8 9 10 11 11
17 19 21 22 23 9 8 8 11 14 17 25 25 22 17 21 23 21 14 20 26 20 26 25 20 14 14 15 14 11 9 12 16 15 16 14 13 13 14 15 15 14 14 13 13 14 14 16 17 16 15 15 15 15 14 13 13 12 12 11 11 10 9 9 8 7 7 6 5 5 4 4 4 4 4 4 4 4 5 6 7 7 9 9 10 10 11
15 17 20 22 19 17 18 15 13 15 22 14 12 15 18 19 19 17 18 15 18 21 23 20 18 19 17 15 22 26 22 19 23 20 18 20 17 15 15 14 13 14 13 11 11 14 16 17 18 17 16 15 14 14 13 13 13 13 11 11 10 10 10 9 8 7 6 6 5 5 4 4 4 4 5 4 3 4 5 6 7 8 8 9 9 9 10
12 13 21 22 12 8 9 12 20 28 30 21 16 19 15 12 18 18 14 16 19 21 24 23 20 22 23 24 23 23 20 17 18 15 15 17 19 13 13 14 13 13 12 13 15 17 17 17 17 16 16 15 15 14 14 14 13 12 11 11 11 10 9 9 8 8 6 6 5 5 4 4 5 5 4 4 3 4 5 6 7 7 9 9 9 9 9
15 17 16 12 6 3 6 13 27 31 25 21 24 24 21 20 15 14 15 18 20 24 21 19 19 22 21 20 22 21 22 20 12 15 21 22 19 17 15 12 13 13 14 15 17 16 14 15 16 18 17 15 16 15 15 13 12 12 12 11 10 10 9 8 8 7 6 6 5 5 4 4 4 4 4 3 3 5 6 6 6 8 8 9 9 9 9
12 16 15 8 8 14 18 24 23 16 21 26 27 24 23 20 13 16 15 20 21 22 22 22 26 20 18 19 20 19 13 9 15 20 20 20 21 17 11 12 12 11 10 11 13 16 17 17 16 15 15 16 13 13 13 13 13 12 12 11 10 9 9 9 8 7 7 6 5 5 4 4 5 5 3 3 4 5 5 6 6 7 8 9 9 9 9
11 13 2 5 16 18 21 10 10 22 29 29 26 27 24 21 19 21 22 26 29 31 28 27 21 18 18 22 22 21 17 16 17 22 23 22 21 20 12 10 9 10 12 12 12 12 12 14 14 14 13 12 13 12 12 12 10 12 10 10 9 9 9 8 8 7 7 6 6 5 5 5 5 4 2 3 4 5 4 5 6 6 7 8 8 8 10
3 2 9 10 17 5 5 7 17 19 21 19 16 18 18 22 23 25 25 28 30 29 32 25 16 19 19 18 21 21 19 16 17 17 19 24 20 12 9 11 10 10 11 13 14 14 11 13 13 14 15 14 14 12 10 10 10 9 10 9 9 9 8 8 8 7 7 7 6 6 6 6 5 2 2 4 4 4 5 5 5 6 6 7 8 10 10
11 11 14 21 2 7 5 10 15 17 16 16 17 14 17 21 21 24 21 23 25 29 28 23 23 19 9 11 18 22 18 15 17 18 21 23 19 15 10 8 11 10 9 11 11 10 12 13 14 15 13 13 12 12 11 9 10 10 9 9 9 9 9 9 8 8 7 7 6 6 6 5 4 2 2 4 4 3 4 5 5 6 6 7 7 9 11
14 14 12 9 9 14 15 25 24 17 12 11 5 11 11 13 25 23 19 20 27 32 28 25 21 1 2 13 18 23 16 13 18 20 19 16 12 11 9 5 5 6 7 7 9 12 13 13 13 12 13 13 13 12 11 11 10 10 9 9 9 9 9 9 8 8 7 7 7 7 6 5 3 2 3 3 4 3 4 5 5 6 6 7 8 9 11
10 11 10 13 12 16 13 23 23 29 14 8 8 4 11 16 29 23 21 24 26 27 25 23 12 3 9 12 16 20 7 12 14 13 11 11 12 9 8 9 8 8 9 12 13 13 15 15 12 14 16 15 14 12 12 12 11 10 10 10 10 10 9 9 8 8 7 7 7 6 6 4 3 2 4 4 3 3 4 4 5 5 5 7 9 10 11
13 15 11 10 7 13 15 20 23 15 12 14 10 11 13 23 30 24 22 18 20 24 24 19 9 11 12 13 18 23 10 11 10 12 11 10 9 7 5 5 7 8 10 14 13 14 17 17 16 18 17 15 13 13 12 12 11 11 11 10 9 8 9 9 8 7 6 7 6 6 5 4 3 3 3 3 3 3 4 4 4 4 5 7 10 11 11
23 24 16 11 8 5 9 19 14 9 14 15 14 19 16 19 17 17 14 17 19 21 20 14 11 16 19 19 21 2 5 5 5 5 4 5 6 9 8 8 9 10 11 13 18 19 14 16 16 14 15 15 14 12 13 12 11 10 9 9 10 9 9 8 8 7 6 6 6 5 4 4 3 3 3 2 2 3 4 3 4 5 6 8 9 10 11
14 16 17 19 15 6 8 17 9 12 9 11 20 16 15 14 16 14 10 12 14 15 16 14 13 15 18 19 18 7 7 10 9 10 7 6 4 3 6 9 13 9 8 7 7 8 9 13 12 12 13 18 14 13 12 13 11 10 10 10 10 9 9 9 8 7 7 6 5 4 4 3 3 4 3 2 2 3 3 3 5 6 8 8 9 10 11
14 9 12 7 13 6 21 7 8 12 15 17 12 15 15 14 18 18 16 14 15 13 13 15 16 17 18 17 17 17 15 10 11 12 10 12 15 13 12 9 12 16 12 13 12 12 10 11 11 12 20 25 17 13 14 14 11 11 10 10 10 9 9 8 7 7 6 7 5 4 3 3 4 3 3 3 3 3 2 3 4 7 8 8 10 11 10
9 15 13 11 14 15 16 16 13 12 22 18 22 19 19 17 16 14 14 12 13 12 13 13 14 16 17 17 15 13 12 11 10 8 8 7 7 6 6 9 14 17 14 10 11 10 12 9 9 11 24 24 14 14 14 11 11 10 10 10 10 10 8 7 7 6 6 6 5 4 4 3 3 3 1 2 1 0 1 2 3 6 7 8 10 9 10
13 11 14 16 11 13 16 23 19 22 24 25 25 22 20 17 15 11 10 11 12 12 14 15 14 14 15 17 17 15 16 15 14 14 15 13 13 11 12 12 13 16 20 18 13 13 12 13 10 9 11 20 17 16 12 12 13 12 11 10 10 9 9 8 7 7 6 5 5 4 4 3 3 3 2 1 0 0 1 2 3 6 7 9 9 9 10
16 18 13 8 13 16 18 21 24 26 24 20 19 21 19 17 18 15 12 9 11 10 11 11 9 13 14 16 15 13 14 13 12 8 3 9 10 9 7 8 12 14 13 17 15 15 13 13 12 11 11 13 26 14 12 10 12 11 12 11 10 10 8 8 8 7 8 6 5 5 3 3 3 2 2 1 1 0 1 2 3 5 8 8 8 9 10
13 14 11 21 21 19 22 19 22 22 21 19 16 16 16 18 18 19 15 13 15 11 5 11 14 15 15 15 14 13 13 12 10 13 15 14 15 17 20 14 15 15 20 16 15 15 16 14 12 11 10 6 8 12 12 11 11 11 11 11 11 9 9 8 8 9 8 6 6 5 4 3 2 2 2 2 2 1 0 2 4 6 7 8 9 9 10
14 13 9 12 12 16 14 13 16 16 18 20 18 15 14 14 15 16 18 15 9 5 7 12 15 16 16 14 15 13 10 13 13 13 15 16 11 11 9 14 20 21 20 17 18 15 15 16 13 11 9 12 9 9 11 11 11 11 11 12 10 10 10 8 7 8 6 8 7 5 4 3 3 3 3 3 2 1 0 1 4 6 7 8 9 9 9
11 15 16 16 19 20 19 15 8 6 8 10 13 15 16 14 14 15 15 14 14 13 15 15 14 15 17 16 16 15 12 11 10 13 16 16 15 11 15 15 23 22 19 18 17 17 13 11 12 11 11 10 10 11 11 11 12 13 11 10 9 10 8 7 7 6 6 6 4 5 4 3 2 2 2 3 2 2 2 2 4 6 7 8 8 8 9
16 10 12 9 10 8 12 15 14 14 15 16 18 16 16 15 18 17 20 20 16 15 17 17 15 15 17 17 15 15 14 15 15 13 12 11 15 13 10 12 14 12 11 17 16 15 13 14 15 15 16 11 11 10 10 11 12 12 12 10 9 8 7 6 6 6 6 5 5 5 4 3 2 0 4 7 4 2 1 5 8 11 9 7 8 8 8
14 10 17 11 13 15 16 19 18 17 12 9 12 14 16 18 19 20 20 19 16 15 15 14 16 17 19 22 19 17 12 15 15 14 13 14 16 14 13 16 14 19 17 21 18 25 18 15 13 12 11 11 11 10 11 12 11 12 12 10 8 7 6 5 6 6 5 4 4 4 4 4 3 3 1 2 6 5 2 4 8 10 9 10 13 13 10
22 17 16 13 13 15 17 18 18 18 16 17 19 17 15 16 17 18 18 18 20 19 17 16 14 20 19 20 17 18 15 14 13 11 14 16 21 21 16 17 17 19 17 20 21 22 15 15 14 12 11 10 11 11 11 10 9 10 10 10 10 8 7 7 7 6 4 5 4 4 3 3 2 2 1 2 3 8 5 5 8 8 9 12 14 14 14
17 14 17 16 19 21 18 20 20 20 19 19 21 21 21 21 20 18 20 19 18 18 17 18 18 16 16 19 18 19 19 19 17 15 14 14 13 18 17 14 18 22 23 21 14 14 14 14 13 11 12 11 10 12 10 10 10 11 10 8 10 9 8 8 7 6 5 5 4 4 4 4 3 2 2 2 3 3 1 1 4 2 7 13 17 16 16
18 19 19 21 18 19 19 21 23 20 22 20 21 19 21 20 22 21 21 19 19 17 17 17 18 19 16 17 17 19 19 18 14 9 10 12 15 20 20 26 25 18 15 14 18 16 16 17 15 14 14 13 12 12 11 11 10 10 9 9 10 8 9 9 8 7 5 5 6 5 4 4 4 4 2 2 2 1 5 9 9 5 6 13 17 19 17
19 21 20 22 21 21 20 20 19 18 23 22 24 24 23 23 22 19 19 16 15 15 17 18 17 16 13 12 12 12 14 13 6 11 13 16 19 26 27 26 23 24 24 25 22 17 18 16 15 15 13 13 13 13 12 12 11 11 11 9 7 10 14 11 7 7 6 6 5 6 5 5 5 4 4 3 3 1 0 2 3 5 7 9 13 16 12
18 17 16 20 21 21 22 21 23 22 25 25 26 26 25 24 23 24 25 24 22 19 17 16 17 17 18 17 15 16 15 10 14 14 15 18 20 21 19 15 16 23 25 27 23 20 20 15 15 14 12 12 12 13 13 13 12 12 10 9 9 8 8 8 7 6 6 5 6 6 6 5 4 4 4 4 2 2 1 2 3 4 5 5 6 10 13
18 18 19 19 20 20 20 19 19 19 20 19 20 19 17 19 20 20 21 21 20 18 18 18 16 16 17 18 16 17 15 14 15 17 19 19 16 13 14 17 21 25 28 24 18 16 15 15 15 15 13 12 13 13 13 13 12 12 10 9 9 8 8 7 6 7 6 6 5 6 7 6 5 5 4 4 2 1 1 2 2 3 3 6 7 7 8
14 15 16 15 16 17 19 18 18 19 20 19 20 18 17 19 20 20 21 22 19 20 18 17 16 15 14 16 16 16 16 17 19 18 19 16 12 13 15 16 20 21 21 21 18 18 18 17 15 17 15 14 14 14 15 12 10 10 9 9 8 8 7 8 7 7 7 6 7 10 6 5 4 4 4 3 3 1 1 1 2 2 3 3 4 2 6
13 12 13 14 16 15 14 16 16 17 19 18 19 19 18 17 18 19 20 19 17 17 17 17 18 18 17 16 15 16 15 17 17 15 8 8 12 16 21 29 24 18 19 22 19 19 17 17 16 14 14 14 14 14 14 12 11 10 9 7 7 11 15 15 10 7 6 7 7 6 5 5 4 4 4 4 3 2 1 1 2 2 2 2 2 2 3
14 16 17 12 9 12 14 13 15 15 17 18 20 22 21 20 21 22 20 18 18 18 19 18 18 17 17 16 15 16 16 13 4 7 12 12 15 18 23 27 31 35 35 29 18 21 24 21 16 14 16 15 15 15 13 12 10 10 9 10 10 9 11 15 8 7 5 6 6 6 5 5 4 4 4 3 3 2 1 1 1 1 1 2 2 2 4
14 19 19 21 19 20 19 17 14 18 18 20 20 19 19 20 21 21 20 19 19 18 19 19 17 17 16 16 15 15 15 10 8 8 12 16 18 21 24 23 24 23 21 19 26 24 27 23 20 15 14 14 14 12 10 10 9 10 9 9 9 9 10 10 9 7 6 5 4 5 5 4 4 4 4 3 3 2 1 1 1 1 1 1 2 2 4
8 8 12 15 12 13 16 21 20 19 17 17 19 20 21 21 21 21 22 22 22 21 20 19 19 18 17 17 15 12 7 8 9 11 15 18 20 21 20 17 14 13 15 12 15 16 16 17 19 15 16 13 12 10 9 9 9 9 8 9 10 11 10 8 8 6 6 5 5 5 5 5 4 4 3 3 2 2 1 1 1 1 1 1 2 2 7
10 14 15 16 17 15 15 16 18 20 20 21 25 25 23 22 22 22 24 24 24 23 21 20 19 19 18 17 13 10 13 17 19 20 19 20 19 19 17 16 15 19 16 18 21 18 19 19 15 16 15 13 13 11 11 11 11 9 11 8 9 7 7 6 7 6 6 6 6 5 5 4 4 4 4 3 2 2 1 1 1 1 0 1 2 2 4
10 13 14 15 15 16 17 18 18 19 19 20 21 23 25 27 28 27 28 27 23 22 21 21 20 20 19 17 13 14 17 18 20 18 15 14 15 16 18 18 18 20 19 17 14 17 17 13 17 20 14 12 10 11 10 10 10 8 8 9 8 7 5 5 5 5 5 6 6 4 4 5 5 5 4 3 2 1 1 1 1 0 0 1 1 3 3
10 12 16 17 17 17 20 19 17 16 18 19 21 23 25 27 29 29 28 26 25 24 23 21 20 21 21 19 16 16 18 18 13 9 12 15 17 19 18 14 18 25 26 21 20 14 12 14 21 21 14 11 12 12 14 17 10 9 8 8 8 8 7 7 5 5 5 4 4 5 6 5 3 4 3 2 2 2 1 1 1 0 0 0 1 2 3
20 15 16 17 18 21 22 21 20 19 21 26 26 24 26 26 26 25 24 24 25 24 23 21 21 20 19 16 13 15 14 10 11 16 19 21 21 22 21 23 21 19 18 12 15 14 12 17 22 15 11 11 11 11 12 11 15 11 8 8 7 7 6 6 6 5 5 4 4 5 5 4 5 4 3 2 2 2 1 1 0 0 0 0 1 1 2
23 19 13 14 16 18 22 24 23 19 17 21 25 26 27 25 26 27 26 26 25 24 21 21 20 18 17 15 13 11 10 10 16 19 18 21 21 24 22 20 20 19 17 20 16 13 16 18 14 12 10 10 11 11 12 14 15 9 7 7 8 6 6 5 6 5 5 5 5 4 4 4 3 4 3 2 2 2 2 1 0 0 0 0 1 1 2
19 19 21 21 23 22 20 21 24 26 23 19 20 26 27 24 21 21 23 24 24 22 20 20 19 16 15 14 12 9 9 15 16 18 20 19 17 14 13 12 12 16 21 25 18 12 19 23 15 10 10 10 11 11 10 13 14 7 8 7 7 5 5 6 6 6 6 5 5 5 3 4 4 3 2 3 2 2 1 1 1 0 0 0 0 1 2
18 20 23 22 22 21 21 21 24 27 25 25 22 22 22 20 21 21 21 23 22 22 21 19 17 16 12 9 9 10 12 14 16 19 20 19 16 16 17 17 12 17 21 13 12 14 20 14 14 12 10 11 9 10 11 11 10 7 7 7 7 7 7 6 6 6 6 6 4 5 5 5 5 4 2 2 2 1 1 1 1 0 0 0 0 1 1
20 21 22 24 22 22 22 22 22 24 23 21 20 20 20 19 17 19 22 22 22 18 11 6 5 7 11 13 13 13 14 15 16 17 19 19 19 18 15 9 12 17 24 27 23 18 14 11 10 12 13 10 11 11 13 11 7 7 7 7 7 6 6 7 5 5 3 3 4 4 4 3 3 3 3 2 2 1 1 1 1 0 0 0 0 1 1
21 23 22 21 22 23 22 22 22 24 25 22 18 14 13 12 11 12 12 9 4 4 7 9 14 16 15 15 17 14 11 12 15 16 13 9 9 5 11 17 14 20 29 15 14 13 13 11 11 8 17 16 12 19 18 9 7 8 7 7 6 6 5 6 5 5 5 4 4 3 4 3 3 3 3 2 2 1 1 1 1 0 0 0 0 0 1
23 21 20 20 23 23 22 22 23 21 18 15 13 13 13 11 11 10 7 4 5 6 9 10 12 12 13 15 17 12 12 11 13 12 12 15 18 15 13 13 14 17 23 14 11 12 11 10 10 18 22 21 21 20 11 7 7 7 7 7 7 6 6 6 5 5 5 4 4 4 4 3 3 2 2 3 2 1 2 1 1 1 0 0 0 1 1
21 19 21 23 25 23 20 19 19 17 14 12 11 11 12 13 12 11 9 8 9 9 9 10 11 11 11 11 12 11 10 9 6 11 14 12 13 9 8 12 14 13 15 19 10 10 10 11 18 23 19 20 20 18 9 8 8 7 7 7 7 6 6 5 5 5 3 3 4 4 3 4 3 3 2 2 2 2 2 1 1 1 0 0 0 1 1
20 19 19 22 22 20 19 19 16 13 10 8 8 12 13 12 11 11 12 11 11 10 10 9 10 10 13 15 15 14 13 11 11 9 6 10 19 14 14 16 13 14 23 22 8 10 10 19 20 19 21 20 20 12 7 7 7 7 7 7 6 6 5 5 5 4 4 4 4 4 4 4 3 2 2 2 1 1 1 1 1 0 0 0 0 0 1
19 18 18 18 20 20 20 16 13 10 9 9 10 9 11 11 11 9 11 14 15 14 13 12 12 11 9 10 10 11 15 12 11 9 11 10 13 17 20 23 24 26 20 12 9 9 12 16 16 19 19 19 16 7 8 7 7 7 6 6 6 5 5 5 5 4 4 3 3 3 3 2 2 2 2 2 2 1 1 1 1 0 0 0 1 1 1
19 18 17 19 20 19 18 14 11 10 11 10 9 8 8 9 11 12 12 11 12 13 12 11 11 11 11 11 10 10 6 13 20 9 8 11 12 14 13 10 13 20 22 17 19 16 20 19 19 19 20 17 10 7 7 7 6 6 6 6 5 6 5 5 4 4 4 4 5 4 4 3 3 2 2 2 1 1 1 1 1 0 0 0 0 0 1
17 18 19 17 16 16 15 12 10 9 8 9 9 8 9 8 10 11 11 13 15 13 11 11 11 10 11 11 11 8 9 9 8 11 11 10 12 13 13 17 23 22 14 11 12 11 14 19 20 19 18 13 8 7 7 6 6 5 5 6 5 5 4 4 4 4 4 5 4 3 3 3 3 3 2 2 1 1 1 1 1 1 0 0 1 1 1
15 13 11 10 11 11 12 10 9 9 8 8 8 8 8 6 8 8 8 10 10 10 9 9 8 9 10 10 10 11 11 13 15 15 14 13 12 11 11 11 11 17 17 12 13 14 16 21 18 15 11 6 6 6 5 7 6 5 5 5 5 4 4 4 5 4 4 3 4 3 3 2 2 2 2 1 1 1 1 1 1 1 2 2 1 1 1
11 10 9 10 9 9 12 10 9 9 8 8 7 7 7 8 8 8 9 8 7 10 8 9 9 9 9 10 9 10 13 13 14 16 14 11 10 13 14 12 13 12 12 11 11 13 10 8 7 8 8 7 6 6 5 5 6 6 6 5 5 5 5 4 3 4 3 3 3 2 2 2 2 2 2 1 2 1 2 1 1 1 1 1 1 1 1
12 10 9 9 9 9 9 9 10 9 8 8 8 7 7 7 7 8 9 11 8 7 7 10 10 9 10 10 10 10 8 9 8 10 12 11 11 11 12 15 12 12 11 10 10 10 8 8 9 9 8 7 5 6 6 7 5 5 5 4 5 4 3 2 3 3 3 4 3 3 3 2 2 3 2 2 2 2 1 1 1 1 1 1 0 1 1
Wind_Direction
242 242 249 253 246 203 230 204 194 204 209 209 213 224 228 131 214 234 241 249 254 251 253 260 263 275 275 278 278 270 265 260 249 221 226 223 219 220 218 220 218 214 210 207 203 196 194 184 184 180 174 171 165 161 156 155 153 150 147 148 151 158 165 171 174 173 172 173 174 184 195 205 222 233 243 254 258 267 274 277 278 279 281 282 283 281 280
242 248 251 253 254 240 246 220 214 216 212 214 212 225 219 219 229 237 254 251 261 266 263 262 275 281 282 283 283 273 244 243 263 263 261 247 216 215 212 218 216 215 215 209 196 191 189 188 184 179 177 174 171 164 160 156 152 151 149 152 155 160 167 173 169 167 169 166 175 182 190 208 216 230 239 246 254 265 272 274 278 282 281 279 279 282 285
252 254 255 254 250 255 254 250 248 238 237 226 211 238 236 230 246 261 269 281 278 265 267 274 270 271 278 283 277 275 273 267 271 272 269 269 263 233 220 223 216 217 215 204 190 190 195 189 184 182 177 173 165 158 155 154 153 153 152 151 156 164 171 168 163 160 165 170 177 184 195 203 215 230 241 244 261 273 275 277 277 280 278 280 281 284 288
253 245 251 251 265 257 252 255 253 251 249 244 228 230 218 216 240 243 252 255 253 259 254 253 253 260 263 265 265 265 260 260 277 272 265 262 260 252 233 221 217 214 207 200 196 198 196 189 182 175 171 168 162 162 157 156 151 150 151 152 159 166 163 158 161 163 166 167 175 189 191 208 221 230 241 249 262 271 276 276 276 277 279 281 286 290 292
244 245 251 262 255 359 278 243 240 242 251 256 253 252 249 230 225 241 248 250 245 247 253 255 250 246 245 248 253 253 260 272 272 259 261 263 270 267 257 229 214 208 205 200 198 199 190 184 182 181 168 158 168 162 157 153 143 150 151 155 159 158 156 157 157 162 165 168 179 187 197 208 227 230 234 248 263 267 267 272 279 277 279 287 287 291 291
241 245 249 245 240 235 232 233 235 238 245 243 245 246 244 244 220 241 235 254 260 263 258 245 247 249 243 245 253 260 269 280 270 263 263 271 272 270 247 228 217 203 199 198 198 193 188 185 178 166 162 163 157 146 142 139 147 151 151 154 155 152 153 159 161 159 167 166 181 186 191 211 224 228 228 250 262 266 270 273 272 276 279 282 287 293 297
238 239 124 222 229 231 241 258 239 236 239 243 248 254 259 260 249 242 244 248 253 254 254 254 252 247 257 264 267 271 269 258 262 270 274 270 267 270 255 225 212 202 196 198 192 184 176 160 151 145 149 145 134 135 141 144 149 145 147 147 150 154 157 159 158 161 166 171 179 184 197 209 218 220 223 256 259 262 267 266 271 276 281 287 291 295 296
271 171 207 235 240 238 44 204 238 240 246 247 256 260 253 248 245 244 240 245 252 257 259 258 258 263 266 274 270 263 259 251 251 258 263 267 268 257 239 219 216 198 195 192 188 187 159 144 152 155 156 147 140 141 138 140 140 140 142 147 151 154 157 161 164 167 167 172 176 186 199 207 208 206 219 244 252 263 268 274 274 277 281 285 291 297 297
232 211 212 227 328 340 264 267 239 220 212 213 205 224 238 244 246 248 246 248 253 257 259 266 269 270 274 270 271 263 249 244 239 241 249 257 263 265 251 218 222 198 187 186 176 147 149 154 150 158 145 137 133 132 138 138 135 141 148 153 160 160 162 164 167 167 167 169 177 189 199 202 191 182 226 246 253 253 268 275 279 282 285 288 289 294 297
207 231 234 236 230 238 237 237 246 249 214 221 202 215 257 264 260 245 239 246 250 256 261 263 262 39 230 265 263 268 263 215 227 233 240 252 255 249 238 199 203 181 169 142 137 146 146 151 153 138 134 135 134 138 142 145 148 153 159 164 161 161 165 165 164 160 167 171 179 190 193 192 164 179 235 252 241 251 264 279 284 285 292 293 292 293 288
211 230 231 228 220 231 217 243 240 246 236 141 132 198 246 244 250 247 237 239 249 258 260 259 258 142 246 250 264 273 216 204 206 222 220 216 229 225 210 193 183 175 165 154 146 142 149 150 149 139 141 138 140 146 149 153 156 156 168 164 166 168 163 156 156 159 167 174 183 187 187 173 156 201 236 236 245 258 259 271 275 282 294 298 300 296 281
226 236 231 234 199 239 210 234 244 249 133 148 129 224 233 236 245 247 248 244 244 250 253 255 236 223 245 248 257 259 243 203 197 205 213 207 204 199 175 185 169 146 126 121 146 156 165 163 146 147 146 148 146 146 152 152 159 169 170 167 156 146 144 148 152 157 168 177 185 188 178 153 164 213 237 239 243 265 278 268 279 293 299 296 294 292 291
226 224 241 246 255 254 227 229 235 111 146 144 193 218 227 237 242 245 243 235 235 240 248 238 222 222 229 234 244 78 127 121 211 235 232 202 168 176 166 163 148 148 165 165 170 173 161 145 148 148 148 145 151 148 149 158 172 168 150 139 142 144 142 144 150 160 167 180 190 188 168 151 169 211 227 235 264 271 272 279 291 303 298 298 296 293 297
224 226 229 230 240 221 199 239 175 158 141 206 223 229 236 253 250 249 211 233 230 232 230 231 222 231 235 240 252 235 205 194 201 182 162 152 133 110 138 140 151 143 145 123 113 112 130 144 146 149 148 145 143 148 153 168 164 139 134 141 140 140 144 147 154 162 169 177 188 178 164 150 180 211 208 218 256 259 279 300 307 310 309 300 303 302 303
232 234 242 238 240 149 200 159 132 197 207 234 242 251 245 241 248 252 249 234 242 227 230 226 224 228 237 239 239 242 237 205 195 188 173 180 177 168 154 160 175 148 152 162 162 149 145 146 152 158 144 141 146 151 163 162 140 137 139 137 139 140 141 145 153 162 168 178 178 168 155 162 191 217 200 202 235 240 263 305 308 320 316 310 310 307 305
209 211 204 217 215 214 177 158 203 187 215 221 231 237 249 240 243 246 249 237 235 226 222 223 225 227 234 243 245 244 242 225 223 201 207 197 172 172 195 159 161 165 146 143 136 139 151 153 154 164 160 147 152 157 159 133 132 131 132 136 138 136 139 143 150 162 172 177 170 157 151 167 195 199 194 207 231 230 332 321 327 325 320 315 313 306 314
207 207 213 219 206 203 190 200 214 222 218 223 230 234 240 251 247 242 247 247 240 219 221 226 223 226 228 234 233 226 230 226 212 199 198 188 185 177 171 176 168 164 159 158 147 148 160 163 167 167 173 148 154 152 144 136 143 141 138 137 136 136 141 146 155 160 167 167 162 147 156 178 195 180 189 187 165 91 333 329 336 325 317 312 307 317 319
215 238 222 207 216 218 218 212 220 230 234 226 226 234 247 249 257 256 256 246 250 234 211 222 232 232 234 235 239 231 235 236 223 203 123 199 181 162 147 158 172 159 128 122 139 151 161 168 167 171 179 161 152 146 131 139 140 136 135 135 135 136 139 148 156 159 158 155 151 143 168 181 193 176 149 161 114 18 336 336 336 322 309 300 314 320 318
241 244 193 236 237 224 225 221 230 234 235 239 233 234 235 247 252 258 255 243 248 242 199 213 228 237 239 240 240 234 230 234 223 210 212 199 182 178 184 172 143 152 155 152 160 157 160 172 167 169 160 169 127 126 140 140 137 133 131 132 132 137 146 148 156 166 160 156 152 155 174 185 183 165 161 153 157 191 221 343 328 310 299 316 321 321 322
251 277 278 271 274 266 259 238 242 240 241 245 248 249 243 241 247 253 260 259 252 211 216 219 228 242 245 242 240 238 225 224 222 211 207 196 187 205 168 154 165 149 160 164 164 162 164 168 165 156 152 146 132 130 135 135 130 132 134 143 141 148 150 151 161 165 155 150 150 146 164 180 165 163 161 169 173 184 113 334 308 306 317 321 323 324 321
284 296 293 293 286 284 280 273 250 270 306 300 285 285 281 280 277 273 271 263 259 248 241 238 238 242 248 244 240 238 235 233 225 216 209 195 184 157 165 179 167 176 174 168 167 163 158 149 145 149 148 136 141 146 139 134 141 137 135 131 127 136 145 149 150 150 145 154 147 141 150 155 165 170 167 173 182 192 222 233 284 308 313 318 322 323 323
269 262 279 270 277 275 284 285 284 272 250 251 261 260 264 267 265 261 261 260 252 245 247 249 244 242 246 248 244 240 235 231 225 220 206 189 175 180 180 162 182 158 154 157 158 159 148 151 156 154 147 143 145 144 137 145 146 133 132 132 137 145 156 153 142 144 142 142 142 142 143 138 140 216 236 221 219 214 320 335 329 325 323 322 326 328 322
267 282 286 292 289 288 282 289 292 297 300 261 246 247 254 257 259 260 262 264 264 258 250 241 246 245 244 247 246 242 233 234 229 215 194 181 179 175 165 159 171 179 180 165 154 156 164 162 156 146 139 141 141 138 147 154 150 136 134 135 136 140 153 154 151 140 141 134 139 132 134 138 145 148 116 270 236 224 232 327 331 331 337 336 337 336 334
281 292 294 306 298 289 298 300 305 305 306 301 292 288 281 272 269 269 265 261 263 265 262 256 242 246 249 251 250 250 242 240 234 208 198 192 183 166 158 171 170 169 167 173 178 177 159 153 148 144 135 142 141 144 150 152 149 146 148 142 143 156 150 143 141 141 130 130 130 122 113 97 83 68 113 148 179 189 167 2 339 340 343 345 346 347 345
283 303 298 296 291 291 290 289 291 292 290 289 286 283 282 281 276 271 268 267 262 261 262 262 258 243 239 244 244 245 244 239 232 214 197 187 172 163 174 172 172 174 181 185 169 141 147 144 137 137 138 138 138 144 147 150 153 151 156 142 137 144 144 139 139 140 140 137 134 130 127 117 104 88 66 20 5 335 241 23 354 326 353 353 352 353 349
299 300 297 296 298 295 296 294 286 287 286 284 284 281 279 275 276 275 272 270 269 267 265 264 264 261 251 247 243 245 245 245 231 174 160 168 172 169 176 186 189 188 155 125 135 148 144 145 141 145 146 147 150 149 149 154 160 159 151 146 143 146 146 146 143 146 146 144 139 134 126 120 123 110 95 95 69 30 337 332 346 347 347 359 357 350 347
273 275 283 285 280 279 279 278 285 289 286 285 283 285 284 284 282 280 277 271 265 263 265 265 266 266 265 258 254 251 246 244 155 174 186 183 185 192 195 197 182 139 128 130 136 143 141 136 145 149 148 153 152 149 152 151 146 144 139 138 132 137 140 142 137 141 142 141 137 135 136 135 131 128 130 125 123 118 346 310 315 311 314 321 336 343 344
271 272 266 270 274 276 279 277 275 276 276 277 277 277 277 276 275 275 274 274 271 266 260 257 260 262 260 255 245 244 240 213 193 197 190 198 202 202 198 182 158 157 151 150 145 146 150 152 153 147 147 152 149 148 148 149 148 145 145 146 140 141 145 140 134 135 136 140 141 143 140 133 126 128 131 137 134 149 197 239 259 283 284 299 300 305 339
269 267 266 260 263 267 273 278 283 284 284 283 283 284 287 285 283 281 280 279 278 277 272 268 260 256 257 260 256 249 237 219 212 205 205 208 204 177 168 162 156 137 142 128 134 152 152 157 156 150 154 150 149 149 149 150 151 151 154 155 143 144 146 147 139 134 135 134 139 135 125 123 129 131 129 128 131 150 196 232 253 257 281 304 320 327 347
324 335 330 324 320 316 308 302 300 300 296 295 293 289 286 285 284 281 280 279 279 278 277 276 272 266 255 255 252 249 238 224 218 216 212 206 170 155 147 136 123 124 133 148 166 167 167 162 154 157 156 155 154 151 152 153 149 153 144 141 140 142 143 141 136 134 135 137 134 127 118 121 122 127 126 125 135 150 202 245 265 282 297 303 320 328 336
323 321 320 318 318 320 326 321 319 312 310 308 307 303 298 289 283 282 281 282 280 276 274 271 271 269 265 256 252 247 240 232 228 226 204 155 153 153 149 146 148 167 177 183 174 167 162 157 158 158 149 148 150 151 152 147 147 144 143 134 124 134 139 143 143 140 140 135 134 128 125 125 130 133 132 133 140 162 183 231 244 276 275 292 308 333 327
336 327 325 320 323 319 310 306 307 304 303 305 303 298 297 297 295 291 289 286 283 281 280 277 273 270 267 265 258 251 247 240 185 153 156 150 151 158 165 171 176 177 182 175 155 161 164 159 160 150 144 147 146 153 153 148 147 147 146 144 138 139 145 146 137 141 133 133 131 128 132 134 135 135 130 136 143 151 183 205 255 266 280 315 317 325 322
344 333 327 324 326 321 314 308 306 302 301 298 293 289 287 287 286 284 283 282 281 279 277 274 273 271 268 264 259 250 240 212 186 166 158 167 172 176 180 185 187 185 164 139 167 168 166 161 136 119 135 140 144 146 148 147 144 142 143 142 137 137 144 149 145 136 126 123 128 128 135 129 132 130 129 129 132 150 164 201 247 252 285 293 293 309 303
308 275 272 287 288 293 301 302 302 298 293 289 289 287 284 281 278 278 279 278 275 272 270 269 269 268 268 265 257 243 188 150 153 180 185 180 182 183 181 178 171 151 145 95 137 157 155 143 124 141 144 140 138 136 137 145 145 141 139 135 136 144 147 144 146 138 132 125 123 126 122 128 129 132 127 128 134 149 163 197 219 263 278 289 304 308 316
285 286 284 282 286 285 284 282 287 290 293 294 294 292 287 284 280 277 275 274 271 268 267 266 264 265 264 264 251 205 184 199 205 200 193 186 182 170 162 156 136 113 115 143 159 159 150 141 134 133 136 138 140 147 152 153 144 136 143 131 133 128 134 135 144 146 139 134 131 131 133 131 126 124 120 126 137 150 164 189 231 252 289 308 315 318 326
300 298 293 289 283 279 274 270 268 267 271 273 274 278 283 285 285 284 280 276 274 272 270 266 265 262 260 254 230 204 207 214 216 209 192 174 157 152 156 148 137 135 140 152 157 149 138 133 139 139 138 140 139 142 140 131 131 126 129 130 122 125 127 128 126 110 114 127 135 131 129 125 122 123 127 129 135 146 167 189 202 254 293 323 326 331 321
308 301 297 295 291 285 281 278 275 280 279 277 276 277 276 276 276 276 278 279 278 275 271 268 266 261 256 244 229 218 215 218 208 159 141 144 152 156 153 136 138 149 156 160 169 150 135 140 143 133 129 137 139 144 142 147 141 137 129 133 131 137 135 132 131 127 127 121 121 126 124 127 121 123 127 140 138 157 166 178 178 193 334 327 336 326 326
310 308 299 296 294 292 288 284 284 283 283 281 278 273 271 273 277 278 276 274 272 270 269 266 262 259 254 246 231 223 216 189 153 140 144 153 158 154 155 157 164 161 168 167 132 130 136 136 130 126 130 134 139 139 144 138 141 137 135 138 138 132 130 128 129 123 130 132 136 132 138 137 135 134 140 137 147 157 163 162 170 159 76 358 329 322 316
308 308 291 289 290 290 294 291 290 286 277 279 284 284 279 274 273 275 275 273 272 271 271 268 265 258 248 235 226 214 187 151 136 135 149 155 159 161 168 173 170 169 157 135 115 118 127 137 139 133 134 131 127 125 136 142 146 135 127 131 135 130 129 130 133 131 131 136 136 136 130 130 127 133 137 144 148 154 156 147 142 126 82 10 345 329 320
309 308 305 309 307 305 300 293 292 292 290 277 268 271 276 277 273 272 270 270 270 270 268 267 261 251 239 227 209 187 157 144 136 142 145 144 142 132 116 115 114 112 124 140 137 129 143 139 132 125 126 125 131 136 142 147 147 126 135 133 138 133 132 127 123 128 137 141 133 135 125 133 133 134 131 139 146 157 148 152 148 137 111 22 318 303 301
301 307 306 305 300 300 297 294 292 292 287 283 268 259 262 265 267 269 266 269 272 272 269 262 253 242 225 189 152 133 135 138 141 142 141 137 140 144 147 147 132 128 140 138 133 132 138 135 138 128 132 132 128 132 138 141 138 131 136 134 134 133 137 142 140 140 149 148 149 150 143 139 134 134 137 142 152 143 149 139 133 113 106 34 313 302 297
304 303 302 300 297 297 293 290 283 280 279 283 274 268 272 275 274 273 275 276 275 273 264 249 204 150 119 117 117 122 126 132 136 140 149 152 150 148 130 96 138 140 140 141 136 129 132 128 133 137 136 126 133 129 135 141 133 132 132 137 136 132 131 139 135 137 130 130 129 124 129 130 129 131 140 143 147 153 143 136 128 120 122 187 283 286 305
308 306 302 302 302 302 298 295 290 285 288 300 313 314 306 297 284 279 276 277 262 110 98 100 106 112 122 124 123 113 112 122 123 125 105 67 47 66 129 140 141 140 142 134 130 129 133 135 135 130 143 140 133 138 141 139 134 135 128 128 126 127 128 132 128 124 136 137 136 132 131 131 135 137 148 150 151 147 149 139 129 120 121 245 300 281 305
308 305 303 301 304 302 297 291 289 293 299 305 316 317 320 325 327 325 327 7 54 73 103 109 113 115 120 122 123 120 128 133 134 127 114 93 75 79 103 122 131 136 144 138 131 125 125 124 124 136 138 135 135 141 137 126 134 125 127 128 135 132 130 126 123 136 145 148 141 144 137 133 133 140 145 150 153 147 143 131 134 127 169 218 261 293 307
304 306 308 308 305 304 298 296 303 309 310 314 324 342 348 343 344 353 9 34 55 61 72 91 101 109 112 110 115 108 115 116 103 134 130 114 105 114 118 122 124 122 134 134 104 117 115 124 133 135 133 134 140 143 128 133 133 133 131 131 129 129 129 133 140 148 139 130 128 129 133 139 142 142 148 137 138 135 137 134 134 160 185 267 338 319 325
307 307 306 308 308 306 304 305 305 312 321 335 355 7 358 349 354 13 20 28 45 52 61 69 79 94 109 114 106 97 83 76 56 41 26 118 135 138 139 135 128 131 137 136 99 115 115 129 126 128 133 136 141 137 123 122 123 124 125 127 126 124 126 131 133 137 144 143 136 134 142 142 139 143 146 150 152 133 131 152 174 174 177 221 269 281 297
310 308 307 312 316 315 317 316 319 327 350 5 13 1 351 354 13 20 37 48 60 62 62 63 70 73 69 90 102 116 113 89 48 43 71 75 94 112 136 139 137 137 135 132 121 117 125 125 122 124 130 137 138 121 124 121 125 127 127 125 128 124 131 137 137 133 133 125 116 108 103 108 131 132 138 137 149 160 158 174 190 177 177 195 236 242 255
313 310 308 317 321 320 319 322 340 353 7 7 358 352 355 0 21 32 31 34 44 52 56 58 59 60 62 64 55 39 49 113 101 74 89 105 111 121 122 126 134 129 125 115 115 117 120 122 121 126 133 134 128 118 118 122 122 124 124 129 132 137 137 140 138 136 128 127 130 141 146 149 151 158 161 169 165 167 176 182 181 182 182 209 241 281 284
315 311 309 315 323 329 334 338 348 355 355 351 354 357 356 8 28 33 33 47 55 53 44 38 33 42 47 43 47 51 44 15 75 123 130 122 123 118 111 119 123 124 116 110 110 116 114 120 127 130 132 130 120 123 121 122 120 120 128 133 128 133 135 135 135 140 130 137 141 139 144 147 153 158 169 172 173 172 175 186 187 191 176 227 264 258 255
322 316 321 332 330 339 345 347 348 351 353 357 2 0 358 13 44 33 38 51 57 60 52 45 40 38 46 45 52 59 68 88 90 98 100 99 99 91 104 106 109 118 114 104 108 119 125 126 128 129 128 114 110 116 114 123 126 128 114 123 119 109 103 106 103 105 121 122 137 140 151 156 154 139 159 175 182 182 183 185 183 184 207 237 234 270 270
326 322 332 338 333 337 342 347 343 342 350 3 5 4 19 43 51 46 44 39 53 64 58 55 41 36 39 55 56 68 89 93 96 107 112 109 102 101 101 107 113 114 113 105 109 124 129 125 120 120 121 120 112 117 121 121 119 123 127 125 127 129 132 135 145 143 149 144 138 144 155 151 158 168 179 193 182 189 177 177 181 196 190 208 219 252 262
326 322 343 345 337 338 340 350 352 0 355 0 3 358 358 19 42 46 33 22 30 52 51 78 63 42 57 66 70 72 59 74 86 100 102 101 104 102 105 107 102 108 107 102 107 109 105 110 112 113 113 111 106 104 106 108 100 103 103 111 128 127 119 126 132 130 129 137 147 155 167 167 160 173 191 189 194 186 177 187 195 201 204 218 223 247 271